Location: Estes Park
(40.3770°N, 105.5210°W)
Time: 08:02:56
(UTC-06:00)

Vanguard 1 Rocket - Visible Passes

Search period start: 20 October 2017 00:00
Search period end: 30 October 2017 00:00
Orbit: 655 x 4222 km, 34.3° (Epoch: 19 October)

Date Brightness Start Highest point End Pass type
(mag) Time Alt. Az. Time Alt. Az. Time Alt. Az.
20 Oct 10.8 04:52:02 10° S 04:54:54 11° SSE 04:57:24 10° SE visible
21 Oct 10.0 06:02:01 10° SSW 06:09:53 23° SSE 06:15:06 10° ESE visible
22 Oct 10.5 04:50:41 10° S 04:58:15 17° SSE 05:03:39 10° ESE visible
23 Oct 10.9 03:41:12 10° S 03:46:12 12° SSE 03:50:19 10° SE visible
23 Oct 9.7 06:03:31 10° SW 06:13:12 30° SSE 06:19:04 10° ESE visible
24 Oct 10.2 04:51:11 10° SSW 05:01:34 24° SSE 05:08:10 10° ESE visible
25 Oct 10.7 03:43:17 14° S 03:49:30 19° SSE 03:56:22 10° ESE visible
25 Oct 9.4 06:05:26 10° SW 06:16:30 38° SSE 06:22:46 10° E visible
26 Oct 11.1 02:36:58 13° SSE 02:36:59 13° SSE 02:42:21 10° SE visible
26 Oct 9.9 04:54:20 14° SSW 05:04:50 32° SSE 05:12:09 10° E visible
27 Oct 10.4 03:47:54 22° S 03:52:43 26° SSE 04:00:57 10° ESE visible
27 Oct 9.2 06:07:36 10° SW 06:19:45 46° SSE 06:26:19 10° E visible
28 Oct 10.9 02:41:21 19° SE 02:41:21 19° SE 02:48:34 10° ESE visible
28 Oct 9.7 04:58:42 20° SW 05:08:04 40° SSE 05:15:52 10° E visible
29 Oct 10.2 03:52:03 30° S 03:55:54 33° SSE 04:04:58 10° E visible
29 Oct 9.0 06:09:59 10° WSW 06:22:59 53° S 06:29:48 10° E visible
